Change the Weather History Date:

Monday, December 24, 2012

  Actual Average (KMAI) Record (KMAI)
Temperature  
Mean Temperature 53 °F 51 °F  
Max Temperature 64 °F 62 °F 75 °F (2008)
Min Temperature 42 °F 39 °F 30 °F (1999)
Degree Days  
Heating Degree Days 12    
Month to date heating degree days  
Since 1 July heating degree days  
Cooling Degree Days 0    
Month to date cooling degree days  
Year to date cooling degree days  
Growing Degree Days 3 (Base 50)    
Moisture  
Dew Point 54 °F    
Average Humidity 92    
Maximum Humidity 100    
Minimum Humidity 77    
Precipitation  
Precipitation 0.00 in 0.11 in 2.80 in (2002)
Month to date precipitation 3.13  
Year to date precipitation 52.80  
Sea Level Pressure  
Sea Level Pressure 29.98 in    
Wind  
Wind Speed 4 mph (South)    
Max Wind Speed 14 mph    
Max Gust Speed 25 mph    
Visibility 8 miles    
Events Fog , Rain , Thunderstorm    
T = Trace of Precipitation, MM = Missing Value Source: NWS Daily Summary

Daily Weather History Graph

Daily Weather History Graph

Search for Another Location

Airport or City:

Trip Planner

Search our weather history database for the weather conditions in past years. The results will help you decide how hot, cold, wet, or windy it might be!

Date:

Astronomy

Dec. 24, 2012 Rise Set
Actual Time 7:34 AM EST 5:42 PM EST
Civil Twilight 7:07 AM EST 6:09 PM EST
Nautical Twilight 6:37 AM EST 6:39 PM EST
Astronomical Twilight 6:07 AM EST 7:09 PM EST
Moon 3:05 PM EST (12/24) 4:17 AM EST (12/24)
Length of Visible Light 11h 01m
Length of Day
10h 08m
Waxing Gibbous, 88% of the Moon is Illuminated
Dec 24
Waxing Gibbous
Dec 28
Full
Jan 4
Last Quarter
Jan 11
New
Jan 18
First Quarter

Hourly Weather History & Observations

Time (EST) Temp. Windchill Dew Point Humidity Pressure Visibility Wind Dir Wind Speed Gust Speed Precip Events Conditions
12:15 AM 42.8 °F - 39.2 °F 87% 30.12 in 10.0 mi Calm Calm - N/A   Clear
12:35 AM 44.6 °F - 41.0 °F 87% 30.11 in 10.0 mi Calm Calm - N/A   Clear
12:55 AM 44.6 °F - 41.0 °F 87% 30.11 in 10.0 mi Calm Calm - N/A   Clear
1:15 AM 44.6 °F - 41.0 °F 87% 30.10 in 10.0 mi Calm Calm - N/A   Clear
1:35 AM 44.6 °F 43.1 °F 41.0 °F 87% 30.10 in 10.0 mi SE 3.5 mph - N/A   Clear
1:55 AM 44.6 °F - 41.0 °F 87% 30.09 in 10.0 mi Calm Calm - N/A   Clear
2:15 AM 44.6 °F 43.1 °F 41.0 °F 87% 30.08 in 10.0 mi SE 3.5 mph - N/A   Clear
2:35 AM 44.6 °F 43.1 °F 41.0 °F 87% 30.08 in 10.0 mi SE 3.5 mph - N/A   Clear
3:15 AM 44.6 °F - 42.8 °F 93% 30.07 in 10.0 mi Calm Calm - N/A   Clear
3:35 AM 44.6 °F 43.1 °F 42.8 °F 93% 30.06 in 10.0 mi SE 3.5 mph - N/A   Clear
3:55 AM 46.4 °F 45.2 °F 42.8 °F 87% 30.06 in 10.0 mi SE 3.5 mph - N/A   Clear
4:15 AM 50.0 °F - 44.6 °F 82% 30.05 in 10.0 mi SSE 3.5 mph - N/A   Clear
4:35 AM 51.8 °F - 48.2 °F 88% 30.04 in 10.0 mi SSE 4.6 mph - N/A   Clear
4:55 AM 51.8 °F - 48.2 °F 88% 30.03 in 10.0 mi SSE 4.6 mph - N/A   Clear
5:15 AM 51.8 °F - 50.0 °F 94% 30.02 in 10.0 mi SSE 4.6 mph - N/A   Clear
5:35 AM 51.8 °F - 50.0 °F 94% 30.02 in 10.0 mi SSE 3.5 mph - N/A   Clear
5:55 AM 51.8 °F - 50.0 °F 94% 30.02 in 10.0 mi SSE 3.5 mph - N/A   Clear
6:15 AM 53.6 °F - 50.0 °F 88% 30.03 in 10.0 mi South 4.6 mph - N/A   Clear
6:35 AM 53.6 °F - 51.8 °F 94% 30.01 in 10.0 mi South 5.8 mph - N/A   Clear
7:15 AM 53.6 °F - 51.8 °F 94% 30.02 in 10.0 mi South 4.6 mph - N/A   Scattered Clouds
7:35 AM 53.6 °F - 51.8 °F 94% 30.02 in 10.0 mi South 3.5 mph - N/A   Scattered Clouds
7:55 AM 53.6 °F - 51.8 °F 94% 30.01 in 10.0 mi SSE 3.5 mph - N/A   Mostly Cloudy
8:15 AM 55.4 °F - 53.6 °F 94% 30.02 in 10.0 mi SSE 4.6 mph - N/A   Mostly Cloudy
8:35 AM 57.2 °F - 53.6 °F 88% 30.02 in 10.0 mi SSE 3.5 mph - N/A   Overcast
8:55 AM 57.2 °F - 53.6 °F 88% 30.02 in 10.0 mi South 6.9 mph - N/A   Overcast
9:15 AM 57.2 °F - 53.6 °F 88% 30.01 in 10.0 mi SSE 6.9 mph - N/A   Overcast
9:35 AM 59.0 °F - 55.4 °F 88% 30.01 in 10.0 mi South 10.4 mph - N/A   Overcast
9:55 AM 59.0 °F - 55.4 °F 88% 30.01 in 10.0 mi South 10.4 mph - N/A   Mostly Cloudy
10:15 AM 60.8 °F - 55.4 °F 82% 30.00 in 10.0 mi South 9.2 mph - N/A   Scattered Clouds
10:35 AM 62.6 °F - 55.4 °F 77% 30.00 in 10.0 mi South 9.2 mph - N/A   Scattered Clouds
10:55 AM 62.6 °F - 55.4 °F 77% 30.01 in 10.0 mi South 13.8 mph 18.4 mph N/A   Scattered Clouds
11:15 AM 62.6 °F - 57.2 °F 82% 30.00 in 10.0 mi SSW 10.4 mph - N/A   Mostly Cloudy
11:55 AM 62.6 °F - 59.0 °F 88% 29.98 in 10.0 mi SSW 12.7 mph - N/A Rain Light Rain
12:15 PM 64.4 °F - 60.8 °F 88% 29.97 in 10.0 mi SSW 12.7 mph 18.4 mph N/A   Mostly Cloudy
12:35 PM 64.4 °F - 60.8 °F 88% 29.95 in 10.0 mi SSW 12.7 mph 19.6 mph N/A Rain Light Rain
12:55 PM 64.4 °F - 60.8 °F 88% 29.95 in 10.0 mi SSW 13.8 mph 21.9 mph N/A Rain Light Rain
1:15 PM 64.4 °F - 60.8 °F 88% 29.94 in 10.0 mi SW 12.7 mph 25.3 mph N/A Rain , Thunderstorm Light Thunderstorms and Rain
1:55 PM 64.4 °F - 60.8 °F 88% 29.92 in 10.0 mi SSW 11.5 mph - N/A Rain Light Rain
2:15 PM 64.4 °F - 62.6 °F 94% 29.90 in 10.0 mi South 8.1 mph - N/A Rain Light Rain
2:35 PM 64.4 °F - 60.8 °F 88% 29.90 in 10.0 mi South 5.8 mph - N/A Rain Rain
2:55 PM 62.6 °F - 60.8 °F 94% 29.90 in 7.0 mi South 5.8 mph - N/A Rain Rain
3:15 PM 62.6 °F - 60.8 °F 94% 29.87 in 1.2 mi ESE 4.6 mph - N/A Rain Heavy Rain
3:35 PM 62.6 °F - 60.8 °F 94% 29.89 in 2.5 mi SSW 8.1 mph - N/A Rain Rain
3:55 PM 62.6 °F - 60.8 °F 94% 29.91 in 2.0 mi West 11.5 mph - N/A Rain Light Rain
4:15 PM 62.6 °F - 62.6 °F 100% 29.92 in 10.0 mi West 6.9 mph - N/A   Overcast
4:35 PM 62.6 °F - 62.6 °F 100% 29.92 in 10.0 mi WSW 5.8 mph - N/A   Mostly Cloudy
4:55 PM 62.6 °F - 62.6 °F 100% 29.91 in 10.0 mi SSW 4.6 mph - N/A   Scattered Clouds
5:15 PM 62.6 °F - 62.6 °F 100% 29.92 in 10.0 mi SW 4.6 mph - N/A   Mostly Cloudy
5:35 PM 62.6 °F - 62.6 °F 100% 29.92 in 10.0 mi SW 5.8 mph - N/A   Scattered Clouds
5:55 PM 62.6 °F - 62.6 °F 100% 29.92 in 10.0 mi SW 6.9 mph - N/A   Scattered Clouds
6:15 PM 62.6 °F - 62.6 °F 100% 29.92 in 10.0 mi SSW 4.6 mph - N/A   Scattered Clouds
6:35 PM 62.6 °F - 62.6 °F 100% 29.92 in 10.0 mi SSW 8.1 mph - N/A   Clear
6:55 PM 62.6 °F - 62.6 °F 100% 29.92 in 10.0 mi SSW 8.1 mph - N/A   Clear
7:15 PM 62.6 °F - 60.8 °F 94% 29.92 in 10.0 mi SSW 5.8 mph - N/A   Clear
7:35 PM 62.6 °F - 60.8 °F 94% 29.92 in 10.0 mi SSW 4.6 mph - N/A   Clear
7:55 PM 62.6 °F - 60.8 °F 94% 29.93 in 10.0 mi SSW 3.5 mph - N/A   Clear
8:15 PM 59.0 °F - 59.0 °F 100% 29.94 in 0.2 mi Calm Calm - N/A Fog Fog
8:35 PM 59.0 °F - 59.0 °F 100% 29.94 in 0.2 mi Calm Calm - N/A Fog Fog
9:15 PM 57.2 °F - 55.4 °F 94% 29.95 in 0.5 mi Calm Calm - N/A Fog Fog
9:35 PM 57.2 °F - 55.4 °F 94% 29.95 in 0.2 mi Calm Calm - N/A Fog Fog
9:55 PM 57.2 °F - 55.4 °F 94% 29.95 in 0.5 mi Calm Calm - N/A Fog Fog
10:15 PM 57.2 °F - 55.4 °F 94% 29.95 in 0.5 mi Calm Calm - N/A Fog Fog
10:35 PM 57.2 °F - 55.4 °F 94% 29.95 in 0.2 mi Calm Calm - N/A Fog Fog
10:55 PM 57.2 °F - 55.4 °F 94% 29.96 in 0.2 mi Calm Calm - N/A Fog Fog
11:15 PM 57.2 °F - 55.4 °F 94% 29.95 in 0.2 mi Calm Calm - N/A Fog Fog
11:35 PM 57.2 °F - 55.4 °F 94% 29.95 in 0.2 mi Calm Calm - N/A Fog Fog
11:55 PM 57.2 °F - 55.4 °F 94% 29.95 in 0.5 mi Calm Calm - N/A Fog Fog